This is the latest recevied weather packets stored in our database for station/object KE0PRS. If no packets are shown the sender has not sent any weather packets the latest 10 day(s).
| Time | Temp. | Humidity | Pressure | Rain* | Wind** | Luminosity | Snow |
|---|---|---|---|---|---|---|---|
| 1777843446 | 30.56° C | 15% | 1008.6 hPa | 0 mm | - | 588 W/m² | - |
| 1777843143 | 31.11° C | 15% | 1008.9 hPa | 0 mm | - | 603 W/m² | - |
| 1777842840 | 30.56° C | 15% | 1009 hPa | 0 mm | - | 659 W/m² | - |
| 1777842535 | 30° C | 15% | 1009.2 hPa | 0 mm | - | 578 W/m² | - |
| 1777842233 | 30° C | 14% | 1009.3 hPa | 0 mm | - | 577 W/m² | - |
| 1777841927 | 30° C | 15% | 1009.5 hPa | 0 mm | - | 632 W/m² | - |
| 1777841624 | 30° C | 15% | 1009.6 hPa | 0 mm | - | 590 W/m² | - |
| 1777841320 | 30.56° C | 15% | 1009.7 hPa | 0 mm | - | 644 W/m² | - |
| 1777841018 | 30° C | 14% | 1009.6 hPa | 0 mm | - | 693 W/m² | - |
| 1777840715 | 30° C | 15% | 1009.9 hPa | 0 mm | - | 688 W/m² | - |
| 1777840412 | 30.56° C | 15% | 1010.1 hPa | 0 mm | - | 614 W/m² | - |
| 1777840109 | 30.56° C | 16% | 1010 hPa | 0 mm | - | 593 W/m² | - |
| 1777839807 | 30.56° C | 15% | 1010.2 hPa | 0 mm | - | 597 W/m² | - |
| 1777839506 | 30° C | 17% | 1010.2 hPa | 0 mm | - | 744 W/m² | - |
| 1777839202 | 30° C | 16% | 1010.6 hPa | 0 mm | - | 736 W/m² | - |
| 1777838900 | 30.56° C | 17% | 1010.3 hPa | 0 mm | - | 755 W/m² | - |
| 1777838595 | 30.56° C | 16% | 1010.6 hPa | 0 mm | - | 624 W/m² | - |
| 1777838293 | 30° C | 17% | 1010.7 hPa | 0 mm | - | 678 W/m² | - |
| 1777837989 | 30° C | 17% | 1010.7 hPa | 0 mm | - | 788 W/m² | - |
| 1777837687 | 30° C | 17% | 1010.9 hPa | 0 mm | - | 790 W/m² | - |
| 1777837382 | 30° C | 17% | 1010.9 hPa | 0 mm | - | 798 W/m² | - |
| 1777837079 | 29.44° C | 18% | 1011 hPa | 0 mm | - | 802 W/m² | - |
| 1777836775 | 30° C | 18% | 1011.1 hPa | 0 mm | - | 759 W/m² | - |
| 1777836471 | 30° C | 18% | 1011.3 hPa | 0 mm | - | 825 W/m² | - |
| 1777836166 | 29.44° C | 19% | 1011.2 hPa | 0 mm | - | 846 W/m² | - |
* Rain latest hour (hover to see other rain measurements)
** Current wind speed in m/s (hover to see current wind gust speed)